[TLELIST] Archives

 

[list_settings.list_name] Current TLEs

October 28th 2022 PST

HST 1 20580U 90037B 22300.61311635 .00002662 00000-0 14416-3 0 9992 2 20580 28.4715 12.7778 0002610 32.0218 60.0117 15.11126554586220 ISS (ZARYA) 1 25544U 98067A 22301.40187351 .00012121 00000-0 22393-3 0 9996 2 25544 51.6437 36.6369 0006049 12.2170 80.2036 15.49486472365848 CXO 1 25867U 99040B 22302.91003128 .00000978 00000-0 00000-0 0 9997 2 25867 41.7090 223.5259 8940860 241.6660 0.2998 0.37814330 12302 ____________________________________________________________________ These 2-Line ...Continue Reading

[list_settings.list_name] Current TLEs

October 27th 2022 PST

HST 1 20580U 90037B 22299.62640049 .00002368 00000-0 12705-3 0 9996 2 20580 28.4714 19.3211 0002560 21.8535 91.7451 15.11120938586071 ISS (ZARYA) 1 25544U 98067A 22300.37301123 .00011324 00000-0 20996-3 0 9997 2 25544 51.6438 41.7297 0005917 9.2406 100.2907 15.49459275365680 CXO 1 25867U 99040B 22302.90979812 .00000978 00000-0 00000+0 0 9997 2 25867 41.7090 223.5259 8940847 241.6659 0.2679 0.37814546 23469 ____________________________________________________________________ These 2-Line ...Continue Reading

[list_settings.list_name] Current TLEs

October 26th 2022 PST

HST 1 20580U 90037B 22298.70515766 .00002386 00000-0 12810-3 0 9998 2 20580 28.4713 25.4301 0002511 12.0965 119.9664 15.11116442585931 ISS (ZARYA) 1 25544U 98067A 22299.53426762 .00009001 00000-0 16874-3 0 9998 2 25544 51.6437 45.8830 0005899 5.9587 101.9536 15.49436335365553 CXO 1 25867U 99040B 22300.26586847 .00001008 00000-0 00000-0 0 9992 2 25867 41.7837 223.7762 8938652 241.5073 0.2448 0.37812224 12293 ____________________________________________________________________ These 2-Line ...Continue Reading

[list_settings.list_name] Current TLEs

October 25th 2022 PST

HST 1 20580U 90037B 22297.98439135 .00002730 00000-0 14818-3 0 9995 2 20580 28.4712 30.2097 0002474 4.2677 159.0324 15.11113746586097 ISS (ZARYA) 1 25544U 98067A 22298.37257345 .00094794 00000-0 16849-2 0 9992 2 25544 51.6415 51.6332 0005510 4.8705 98.9120 15.49377037365378 CXO 1 25867U 99040B 22300.26586847 .00001008 00000-0 00000-0 0 9992 2 25867 41.7837 223.7762 8938652 241.5073 0.2448 0.37812224 12293 ____________________________________________________________________ These 2-Line ...Continue Reading

[list_settings.list_name] Current TLEs

October 24th 2022 PST

HST 1 20580U 90037B 22296.72265172 .00003001 00000-0 16393-3 0 9996 2 20580 28.4710 38.5770 0002415 350.9004 134.9130 15.11107815585630 ISS (ZARYA) 1 25544U 98067A 22297.39414622 .00010638 00000-0 19624-3 0 9996 2 25544 51.6433 56.4754 0005482 9.9296 32.0413 15.49680856365222 CXO 1 25867U 99040B 22297.62167053 .00001079 00000-0 00000-0 0 9999 2 25867 41.8565 224.0272 8938932 241.3505 0.2074 0.37816742 12284 ____________________________________________________________________ These 2-Line ...Continue Reading

[list_settings.list_name] Current TLEs

October 23rd 2022 PST

HST 1 20580U 90037B 22295.73084263 .00002862 00000-0 15591-3 0 9999 2 20580 28.4709 45.1541 0002362 339.6650 140.0186 15.11101996585486 ISS (ZARYA) 1 25544U 98067A 22296.37208436 .00009800 00000-0 18161-3 0 9991 2 25544 51.6431 61.5338 0005388 7.1334 89.1758 15.49654422365060 CXO 1 25867U 99040B 22297.62167053 .00001079 00000-0 00000-0 0 9999 2 25867 41.8565 224.0272 8938932 241.3505 0.2074 0.37816742 12284 ____________________________________________________________________ These 2-Line ...Continue Reading

[list_settings.list_name] Current TLEs

October 22nd 2022 PST

HST 1 20580U 90037B 22294.72985862 .00002523 00000-0 13618-3 0 9994 2 20580 28.4707 51.7922 0002311 328.1425 95.4226 15.11095827585334 ISS (ZARYA) 1 25544U 98067A 22295.20524247 .00010667 00000-0 19708-3 0 9994 2 25544 51.6425 67.3128 0005233 2.8532 59.6936 15.49634237364886 CXO 1 25867U 99040B 22297.62167053 .00001079 00000-0 00000-0 0 9999 2 25867 41.8565 224.0272 8938932 241.3505 0.2074 0.37816742 12284 ____________________________________________________________________ These 2-Line ...Continue Reading

[list_settings.list_name] Current TLEs

October 21st 2022 PST

HST 1 20580U 90037B 22294.08769356 .00002712 00000-0 14721-3 0 9997 2 20580 28.4706 56.0506 0002292 320.5855 202.7059 15.11093094585500 ISS (ZARYA) 1 25544U 98067A 22294.36303434 .00011733 00000-0 21604-3 0 9996 2 25544 51.6429 71.4830 0005250 358.2661 42.8097 15.49620268364753 CXO 1 25867U 99040B 22294.97725721 .00001118 00000-0 00000-0 0 9990 2 25867 41.9457 224.3371 8939761 241.1358 0.2074 0.37816312 12275 ____________________________________________________________________ These 2-Line ...Continue Reading

[list_settings.list_name] Current TLEs

October 20th 2022 PST

HST 1 20580U 90037B 22292.82684977 .00003013 00000-0 16474-3 0 9994 2 20580 28.4704 64.4118 0002234 305.5876 185.1933 15.11086973585044 ISS (ZARYA) 1 25544U 98067A 22293.39578881 .00012505 00000-0 22989-3 0 9993 2 25544 51.6430 76.2732 0005294 354.5238 47.1259 15.49599109364607 CXO 1 25867U 99040B 22294.97725721 .00001118 00000-0 00000-0 0 9990 2 25867 41.9457 224.3371 8939761 241.1358 0.2074 0.37816312 12275 ____________________________________________________________________ These 2-Line ...Continue Reading

[list_settings.list_name] Current TLEs

October 19th 2022 PST

HST 1 20580U 90037B 22291.77122778 .00003105 00000-0 17011-3 0 9993 2 20580 28.4703 71.4119 0002201 292.3763 204.5241 15.11080808584884 ISS (ZARYA) 1 25544U 98067A 22292.30468041 .00014864 00000-0 27186-3 0 9993 2 25544 51.6411 81.6772 0005103 349.5398 81.3461 15.49576157364434 CXO 1 25867U 99040B 22294.97725721 .00001118 00000-0 00000+0 0 9999 2 25867 41.9457 224.3371 8939761 241.1358 0.2074 0.37816312 23435 ____________________________________________________________________ These 2-Line ...Continue Reading
  • This mailing list is a public mailing list - anyone may join or leave, at any time.
  • This mailing list is announce-only.

International Space Station (ISS) / Hubble Space Telescope (HST) / Chandra X-Ray Observatory Orbital Data via EMAIL

Privacy Policy:

Private list